{"data":{"norad_id":62758,"intl_designator":"2025-015A","name":"STARLINK-33596","alt_names":[],"object_type":"PAYLOAD","status":"ACTIVE","operator":null,"country":"US","launch_date":"2025-01-21","launch_site_code":"AFWTR","launch_vehicle":null,"mission":null,"orbit_class":"UNKNOWN","rcs_meters":null,"size_class":null,"mass_kg":null,"dimensions":null,"purposes":["comms"],"wikipedia_slug":null,"has_3d_model":false,"image_url":null,"decayed_at":null,"tle_current":{"epoch":"2026-05-25T04:00:03.998880Z","epoch_age_seconds":60651,"freshness":"FRESH","line1":"1 62758U 25015A   26145.16671295 -.00026377  00000+0 -84075-3 0  9999","line2":"2 62758  53.1589 327.1924 0000980  73.4224 179.6855 15.31717696  5864","mean_motion":15.31717696,"eccentricity":9.8e-5,"inclination_deg":53.1589,"raan_deg":327.1924,"arg_perigee_deg":73.4224,"mean_anomaly_deg":179.6855,"bstar":-0.00084075,"rev_number":586,"period_min":94.012101822711,"perigee_km":470.01606010234,"apogee_km":471.35842965433,"semimajor_km":6848.8242448783,"source":"CELESTRAK","updated_at":"2026-05-25T13:38:19.742748Z"}}}